Location: Hatfield Heath
(51.8000°N, 0.2167°E)
Time: 14:26:28
(UTC+00:00)

Daily predictions for brighter satellites

Satellite Brightness Start Highest point End
(mag) Time Altitude Azimuth Time Altitude Azimuth Time Altitude Azimuth
NOAA 12 4.3 16:17:52 10° SE 16:23:00 52° ENE 16:28:09 10° N
Cosmos 1898 Rocket 3.5 16:18:35 10° NNW 16:23:52 71° ENE 16:29:03 10° SSE
Cosmos 2369 3.9 16:18:49 10° NNW 16:24:29 55° NE 16:30:06 10° SE
NOSS 2-1 (E) 3.8 16:22:24 10° WSW 16:25:29 39° NW 16:28:54 10° NE
Meteor PRIRODA 3.8 16:23:18 10° SE 16:26:47 47° ENE 16:30:18 10° N
USA 305 3.0 16:23:26 10° W 16:27:40 64° N 16:31:54 10° E
Cosmos 1933 4.4 16:25:10 10° SSE 16:28:34 27° E 16:31:59 10° NNE
NOSS 2-2 (C) 4.2 16:24:29 10° NW 16:29:14 69° NE 16:35:54 10° SE
Cosmos 1818 4.1 16:25:02 10° NW 16:30:10 38° NNE 16:35:16 10° E
Cosmos 2034 Rocket 4.1 16:25:11 10° S 16:31:11 58° E 16:37:13 10° NNE
SL-16 R/B 3.3 16:26:57 10° NNW 16:31:27 23° NE 16:35:56 10° E
FengYun 1-2 T 4.4 16:26:12 10° SE 16:31:35 52° ENE 16:36:57 10° N
Iridium 2 4.3 16:28:04 10° NNW 16:31:48 59° W 16:35:28 10° S
Cosmos 2237 Rocket 4.3 16:30:32 10° NNW 16:31:53 11° N 16:33:13 10° N
CZ-4B R/B 2.9 16:28:09 10° SSE 16:32:00 53° ENE 16:35:41 10° N
Cosmos 1408 Rocket 3.8 16:29:58 10° NNW 16:34:20 77° W 16:38:42 10° S
ADEOS 3.9 16:30:53 10° S 16:36:06 76° WSW 16:41:22 10° NNW
Cosmos 2082 Rocket 3.3 16:33:31 10° SSE 16:38:03 25° ESE 16:42:36 10° NE
USA 267 4.0 16:32:45 10° ENE 16:38:51 40° SE 16:44:56 10° SSW
SMAP 3.3 16:38:06 10° SE 16:42:34 47° ENE 16:47:03 10° N
Cosmos 1743 Rocket 3.5 16:40:08 10° N 16:44:29 77° E 16:48:49 10° SSE
Cosmos 2333 Rocket 4.0 16:42:46 10° NNW 16:45:56 15° NNE 16:49:04 10° NE
Meteor 1-25 Rocket 4.2 16:40:27 10° N 16:46:02 72° ENE 16:51:38 10° SSE
Cosmos 2278 3.9 16:42:10 10° NNW 16:47:44 50° NE 16:53:15 10° SE
Cosmos 1763 Rocket 3.5 16:43:30 10° SSW 16:48:32 66° ESE 16:53:38 10° NNE
Cosmos 2026 Rocket 4.0 16:42:46 10° N 16:48:50 55° ENE 16:54:46 10° SSE
Cosmos 1602 3.8 16:45:39 10° N 16:49:29 56° ENE 16:53:17 10° SSE
ARGOS 4.1 16:45:12 10° ESE 16:49:29 25° ENE 16:53:46 10° N
Cosmos 1634 Rocket 4.5 16:44:15 10° SSE 16:50:05 41° E 16:55:57 10° NNE
SL-16 R/B 4.3 16:49:55 10° NW 16:52:13 12° NNW 16:54:30 10° N
Cosmos 44 Rocket 3.7 16:47:39 10° NW 16:52:26 43° NE 16:57:03 10° ESE
CZ-4B DEB 4.4 16:47:21 10° SE 16:52:38 50° ENE 16:57:56 10° N
SJ 16-02 4.4 16:49:58 10° NW 16:52:46 17° W 16:55:35 10° SW
Cosmos 2195 Rocket 4.5 16:46:47 10° N 16:52:56 67° ENE 16:59:07 10° SSE
SeaSat 1 3.4 16:50:26 10° NNE 16:55:06 43° NW 16:59:46 10° WSW
Cosmos 1833 Rocket 2.8 16:49:51 10° SSW 16:55:23 64° ESE 17:00:59 10° NE
Cosmos 1666 Rocket 4.2 16:51:38 10° N 16:55:39 32° ENE 16:59:39 10° SE
Cosmos 841 Rocket 4.0 16:52:15 10° S 16:56:59 38° ESE 17:01:43 10° NE
CZ-2C R/B 3.0 16:52:44 10° SSE 16:57:35 79° WSW 17:02:22 10° NNW
Okean O Rocket 2.7 16:55:55 10° ESE 16:59:24 23° ENE 17:02:53 10° N
USA 306 3.0 16:55:44 10° WNW 16:59:58 64° N 17:03:36 14° E
Cosmos 1937 Rocket 3.7 16:55:18 10° NNW 17:00:40 83° WSW 17:05:59 10° SSE
Cosmos 1809 Rocket 4.4 16:54:51 10° N 17:00:58 72° ENE 17:07:02 10° SSE
Cosmos 2219 Rocket 3.9 16:59:33 10° N 17:02:35 14° NNE 17:04:46 12° NE
H-2A R/B 2.3 16:58:04 10° SE 17:02:50 41° ENE 17:07:31 10° N
ISS -2.3 17:00:01 10° W 17:03:13 39° SSW 17:06:25 10° SE
Cosmos 1939 Rocket 2.8 16:59:52 10° SSE 17:03:58 76° ENE 17:08:01 10° N
COSMOS 2406 3.4 16:58:56 10° SSW 17:04:34 59° ESE 17:10:10 10° NE
ATLAS 2AS CENTAUR R/B 3.8 16:57:56 10° WNW 17:04:51 34° N 17:10:36 13° NE
Cosmos 372 Rocket 3.9 17:00:13 10° NNW 17:05:29 75° ENE 17:10:44 10° SSE
Cosmos 1606 4.2 17:02:11 10° SW 17:05:41 36° WNW 17:09:15 10° N
Cosmos 1125 Rocket 4.3 17:02:05 10° N 17:06:41 30° NE 17:11:17 10° ESE
CZ-2C R/B 3.7 17:02:59 11° NE 17:06:50 22° E 17:10:48 10° SE
Cosmos 1500 3.1 17:05:40 10° N 17:09:23 60° ENE 17:13:04 10° SSE
Cosmos 1500 Rocket 4.4 17:07:49 10° NNW 17:12:11 55° W 17:16:28 10° S
USA 234 3.4 17:08:02 10° SE 17:14:35 79° SSW 17:21:09 10° WNW
Sich 1 2.9 17:12:40 10° N 17:17:00 84° E 17:21:19 10° SSE
Cosmos 1782 2.9 17:13:35 10° S 17:17:29 56° E 17:21:24 10° NNE
Cosmos 2221 3.9 17:13:46 10° SW 17:17:47 39° WNW 17:21:52 10° N
SL-08 R/B 3.7 17:13:47 10° N 17:18:29 64° WNW 17:23:03 10° SSW
CZ-2D R/B 3.3 17:15:38 10° SSE 17:19:22 53° ENE 17:23:06 10° N
USA 307 2.9 17:15:23 10° WNW 17:19:38 67° N 17:22:25 21° E
CZ-4B R/B 3.3 17:16:43 10° SE 17:21:51 47° ENE 17:26:57 10° N
ATLAS 5 CENTAUR R/B 2.7 17:14:26 10° NW 17:24:09 58° NNE 17:26:27 20° E
Cosmos 1805 Rocket 3.9 17:20:01 10° NNW 17:24:19 67° W 17:28:37 10° S
NOAA 6 4.2 17:19:46 10° SSE 17:24:54 79° WSW 17:30:05 10° NNW
SL-24 R/B - RUBIN 2 4.5 17:22:49 10° NW 17:27:16 51° SW 17:31:28 10° SSE
PAYLOAD B 4.2 17:22:27 10° SSE 17:28:01 72° ENE 17:33:38 10° NNW
ERBS 3.3 17:26:58 10° WNW 17:29:54 31° N 17:30:53 25° NNE
deb Chang Zheng 4 3.8 17:27:46 10° SE 17:31:54 45° ENE 17:36:02 10° N
Cosmos 2360 Rocket 3.1 17:30:38 10° NNW 17:35:32 29° NE 17:37:21 24° ENE
Lacrosse 5 rocket 1.2 17:32:25 10° WNW 17:36:19 87° SSW 17:39:14 18° ESE
Cosmos 540 Rocket 3.4 17:31:28 10° SSW 17:36:35 86° WNW 17:41:13 13° NNE
H-2A R/B 4.4 17:40:45 14° NNE 17:40:45 14° NNE 17:41:31 10° N
Cosmos 1666 2.5 17:34:46 10° N 17:38:29 72° ENE 17:42:12 10° SSE
ATLAS CENTAUR R/B 3.5 17:35:34 10° WNW 17:38:45 19° NNW 17:41:01 14° NNE
USA 308 2.8 17:38:00 10° WNW 17:42:16 73° NNE 17:44:08 32° E
Meteor 2-16 Rocket 4.4 17:41:47 10° N 17:47:56 85° E 17:54:05 10° S
Meteor 1-11 Rocket 3.9 17:45:37 10° N 17:51:02 46° ENE 17:56:31 10° SE
COSMOS 2428 4.2 17:47:54 10° NNW 17:51:56 19° NNE 17:52:06 19° NNE
Meteor 1-26 Rocket 4.5 17:46:03 10° SSW 17:52:04 81° WNW 17:58:10 10° NNE
COSMOS 2455 2.8 17:46:40 10° SSW 17:52:42 86° SE 17:56:40 23° NE
PSLV R/B 4.4 17:51:11 10° S 17:54:49 56° WSW 17:58:33 10° NNW
CZ-4 R/B 3.4 17:59:19 15° N 17:59:19 15° N 18:00:09 10° N
Cosmos 2322 Rocket 2.3 17:51:37 10° NNW 17:57:12 51° NE 18:00:16 26° ESE
Cosmos 1814 Rocket 3.9 17:52:47 10° SSW 17:57:58 72° ESE 18:00:57 26° NNE
Cosmos 921 Rocket 3.6 17:54:32 10° S 17:57:55 35° ESE 17:57:55 35° ESE
YAOGAN 3 4.4 17:54:45 10° SSE 17:59:05 70° ENE 18:03:26 10° N
Cosmos 1570 Rocket 3.9 17:53:55 10° S 17:59:05 65° ESE 18:01:47 28° NE
Cosmos 2298 Rocket 3.9 17:55:16 10° NNW 18:00:37 74° ENE 18:05:57 10° SSE
SL-08 RB Rocket 3.8 17:56:41 10° SE 18:01:11 54° ENE 18:05:40 10° N
COSMO-SKYMED 1 2.6 17:59:54 38° NE 18:01:14 54° E 18:05:29 10° S
Cosmos 1980 Rocket 3.4 17:56:18 10° NW 18:01:39 44° WSW 18:06:56 10° S
CZ-4C R/B 3.4 17:55:28 10° NW 18:02:28 63° SW 18:10:41 10° SSE
Cosmos 1356 Rocket 3.6 18:00:26 10° N 18:04:08 48° NE 18:04:08 48° NE
Cosmos 1633 Rocket 3.3 18:01:36 10° NNW 18:05:57 69° W 18:10:19 10° S
Cosmos 1812 2.9 18:03:47 10° SSW 18:07:37 71° WNW 18:09:54 23° N
USA 305 2.8 18:03:28 10° WNW 18:07:44 88° NNE 18:08:38 55° ESE
Cosmos 2142 Rocket 4.5 18:05:59 10° SSW 18:12:11 83° W 18:18:28 10° N
Feng Yun 1-1 Rocket 4.3 18:06:39 10° SSE 18:12:30 66° ENE 18:18:17 10° NNW
YAOGAN 1 3.4 18:14:03 35° NNE 18:14:03 35° NNE 18:16:52 10° N
Cosmos 1818 4.0 18:08:39 10° NW 18:14:05 63° SW 18:19:27 10° SSE
CZ-4 R/B 4.3 18:10:11 10° SSE 18:14:19 89° WSW 18:18:30 10° NNW
Cosmos 1151 Rocket 3.2 18:10:20 10° SSW 18:14:40 71° WNW 18:17:49 19° N
Cosmos 2279 Rocket 4.0 18:09:12 10° SSW 18:15:25 83° W 18:21:40 10° N
SL-16 R/B 2.1 18:10:43 10° NNW 18:16:26 82° ENE 18:21:04 16° SSE
Cosmos 2266 Rocket 3.9 18:10:14 10° N 18:16:39 76° ENE 18:23:05 10° SSE
Cosmos 2237 Rocket 4.1 18:15:28 10° N 18:17:59 15° NNE 18:17:59 15° NNE
Cosmos 2082 Rocket 2.4 18:16:01 10° SW 18:21:41 68° NW 18:24:53 27° NNE
USA 267 3.2 18:19:25 37° ENE 18:22:19 87° NNW 18:28:52 10° WSW
Landsat 5 4.2 18:25:10 38° SSE 18:25:10 38° SSE 18:27:47 10° S
SKYMED 3 4.5 18:24:18 50° NNE 18:25:24 90° WNW 18:29:46 10° SSW
NOAA 15 4.5 18:20:33 10° SSE 18:25:47 69° ENE 18:31:03 10° NNW
ARGOS 3.4 18:23:56 10° S 18:29:19 69° WSW 18:34:44 10° NNW
Cosmos 1933 Rocket 3.7 18:26:55 10° N 18:30:32 60° N 18:30:32 60° N
GEOS 3 Rocket 3.5 18:30:35 56° ESE 18:31:41 77° NE 18:36:53 10° NW
Cosmos 2333 Rocket 3.0 18:26:38 10° NNW 18:31:05 35° NNE 18:31:05 35° NNE
Meteor 2-15 4.3 18:26:21 10° S 18:32:29 86° E 18:38:32 10° NNE
Cosmos 44 Rocket 4.4 18:29:21 10° NW 18:34:01 43° WSW 18:38:14 12° S
Okean O Rocket 2.3 18:31:03 10° S 18:35:25 55° W 18:39:50 10° NNW
Cosmos 2208 Rocket 4.1 18:30:25 10° SSW 18:35:50 83° WNW 18:37:42 43° NNE
Cosmos 2150 Rocket 4.3 18:31:55 10° NNW 18:37:03 64° WSW 18:42:13 10° S
Cosmos 1470 Rocket 4.2 18:32:42 10° NNW 18:37:05 57° W 18:41:28 10° S
Cosmos 1328 Rocket 4.1 18:34:14 10° SSW 18:38:37 58° WNW 18:40:29 32° N
SL-16 R/B 4.4 18:36:52 10° N 18:38:38 12° N 18:38:38 12° N
ISS -0.4 18:39:04 10° SW 18:39:20 10° SW 18:39:35 10° SW
Cosmos 1833 Rocket 4.2 18:34:44 10° WSW 18:39:44 32° NW 18:43:03 18° N
USA 306 3.1 18:35:43 10° WNW 18:39:36 67° WSW 18:39:36 67° WSW
H-2A R/B 3.6 18:37:44 10° SSW 18:42:21 34° W 18:46:55 10° NNW
IRS-1C Rocket 4.4 18:43:34 50° NNE 18:43:34 50° NNE 18:47:38 10° N
CZ-2C R/B 2.9 18:44:29 24° N 18:47:37 65° WNW 18:52:43 10° SSW
Cosmos 2219 Rocket 3.3 18:42:59 10° NNW 18:46:30 30° N 18:46:30 30° N
Cosmos 1125 Rocket 4.1 18:43:57 10° NNW 18:49:05 56° WSW 18:54:13 10° S
SKYMED 2 4.2 18:48:31 47° NNW 18:49:19 55° WNW 18:53:33 10° SSW
USA 32 4.2 18:45:12 10° S 18:49:26 59° S 18:49:26 59° S
NOSS 3-4 (A) 3.9 18:48:16 10° NW 18:54:47 54° NNE 18:55:00 53° NE
NOSS 3-4 (C) 3.9 18:48:22 10° NW 18:54:52 53° NNE 18:55:05 53° NE
ATLAS CENTAUR R/B 2.8 18:48:28 10° W 18:54:28 50° NW 18:54:28 50° NW
ATLAS 2AS CENTAUR R/B 3.4 18:50:43 10° NW 18:57:43 39° NNE 18:58:02 39° NNE
Meteor 1-27 Rocket 4.0 18:52:34 10° S 18:56:41 52° S 18:56:41 52° S
USA 307 4.0 18:55:22 10° WNW 18:58:27 44° W 18:58:27 44° W
Lacrosse 5 rocket 3.6 19:12:01 10° W 19:14:52 20° SW 19:14:52 20° SW
ATLAS CENTAUR R/B 4.1 19:15:58 10° NNW 19:17:07 14° NNW 19:17:07 14° NNW
Cosmos 2360 Rocket 2.6 19:14:25 10° NNW 19:19:09 60° WNW 19:19:09 60° WNW
COSMOS 2428 4.4 19:31:45 10° NNW 19:34:07 25° NNW 19:34:07 25° NNW
COSMOS 2455 4.2 19:34:00 10° W 19:39:21 31° NNW 19:39:49 31° NNW
Cosmos 2322 Rocket 3.6 19:35:58 10° NW 19:41:06 35° WSW 19:42:10 33° SW
SL-16 R/B 4.5 19:55:50 10° NW 19:59:53 20° W 20:03:05 13° SW
USA 267 4.0 20:06:46 46° NW 20:06:46 46° NW 20:11:31 10° W
Cosmos 2082 Rocket 4.3 20:02:41 10° W 20:06:45 20° NW 20:06:45 20° NW
Cosmos 2333 Rocket 4.2 20:10:55 10° NW 20:13:07 23° NW 20:13:07 23° NW
ATLAS 2AS CENTAUR R/B 4.4 20:42:13 10° NW 20:45:28 28° NW 20:45:28 28° NW
